• In Slovakia
  • List of Countries
  • For 7 days
  • Water Temperature
  • Satellite Maps
  • Weather Map
  • Weather Widgets
  • user-avatar
    Login

    Hourly Weather Debniak

    Today, 22 September, Saturday

    Time Temperature Precipitation Wind Pressure Humidity
    00:00 +19°C° 0 mm 6 mps 737 mmHg 58%
    01:00 +19°C° 0 mm 6 mps 737 mmHg 60%
    02:00 +19°C° 0 mm 5 mps 737 mmHg 65%
    03:00 +16°C° 0.5 mm 5 mps 737 mmHg 71%
    04:00 +15°C° 0.5 mm 6 mps 738 mmHg 77%
    05:00 +13°C° 0.5 mm 6 mps 738 mmHg 83%
    06:00 +13°C° 0.3 mm 6 mps 739 mmHg 83%
    07:00 +11°C° 0.3 mm 6 mps 739 mmHg 83%
    08:00 +12°C° 0.3 mm 5 mps 740 mmHg 83%
    09:00 +11°C° 0 mm 6 mps 740 mmHg 79%
    10:00 +11°C° 0 mm 6 mps 741 mmHg 74%
    11:00 +11°C° 0 mm 6 mps 741 mmHg 70%
    12:00 +13°C° 0 mm 6 mps 741 mmHg 65%
    13:00 +14°C° 0 mm 6 mps 741 mmHg 60%
    14:00 +15°C° 0 mm 6 mps 741 mmHg 55%
    15:00 +15°C° 0.2 mm 5 mps 741 mmHg 58%
    16:00 +14°C° 0.2 mm 5 mps 741 mmHg 61%
    17:00 +14°C° 0.2 mm 4 mps 741 mmHg 64%
    18:00 +12°C° 0.2 mm 4 mps 741 mmHg 71%
    19:00 +11°C° 0.2 mm 3 mps 741 mmHg 78%
    20:00 +10°C° 0.2 mm 3 mps 742 mmHg 84%
    21:00 +9°C° 0 mm 3 mps 742 mmHg 85%
    22:00 +9°C° 0 mm 3 mps 742 mmHg 85%
    23:00 +9°C° 0 mm 3 mps 742 mmHg 85%

    Tomorrow, 23 September, Sunday

    Time Temperature Precipitation Wind Pressure Humidity
    00:00 +8°C° 0 mm 4 mps 741 mmHg 85%
    01:00 +7°C° 0 mm 4 mps 741 mmHg 85%
    02:00 +7°C° 0 mm 4 mps 741 mmHg 85%
    03:00 +7°C° 0 mm 4 mps 741 mmHg 84%
    04:00 +7°C° 0 mm 4 mps 741 mmHg 84%
    05:00 +7°C° 0 mm 4 mps 741 mmHg 83%
    06:00 +8°C° 0 mm 5 mps 741 mmHg 82%
    07:00 +8°C° 0 mm 5 mps 740 mmHg 80%
    08:00 +9°C° 0 mm 6 mps 740 mmHg 78%
    09:00 +10°C° 0 mm 6 mps 740 mmHg 71%
    10:00 +11°C° 0 mm 6 mps 741 mmHg 64%
    11:00 +12°C° 0 mm 7 mps 741 mmHg 57%
    12:00 +14°C° 0 mm 6 mps 741 mmHg 54%
    13:00 +14°C° 0 mm 6 mps 741 mmHg 52%
    14:00 +15°C° 0 mm 6 mps 740 mmHg 49%
    15:00 +15°C° 0 mm 5 mps 740 mmHg 51%
    16:00 +14°C° 0 mm 5 mps 740 mmHg 54%
    17:00 +14°C° 0 mm 4 mps 740 mmHg 56%
    18:00 +12°C° 0 mm 3 mps 739 mmHg 61%
    19:00 +11°C° 0 mm 3 mps 739 mmHg 65%
    20:00 +9°C° 0 mm 2 mps 739 mmHg 70%
    21:00 +9°C° 0 mm 2 mps 738 mmHg 71%
    22:00 +9°C° 0 mm 2 mps 738 mmHg 72%
    23:00 +9°C° 0 mm 2 mps 737 mmHg 72%

    Day after tomorrow, 24 September, Monday

    Time Temperature Precipitation Wind Pressure Humidity
    00:00 +9°C° 0.1 mm 2 mps 737 mmHg 76%
    01:00 +10°C° 0.1 mm 1 mps 736 mmHg 79%
    02:00 +9°C° 0.1 mm 1 mps 735 mmHg 82%
    03:00 +9°C° 0.6 mm 1 mps 734 mmHg 83%
    04:00 +8°C° 0.6 mm 2 mps 734 mmHg 84%
    05:00 +8°C° 0.6 mm 2 mps 733 mmHg 85%
    06:00 +8°C° 0.4 mm 2 mps 733 mmHg 85%
    07:00 +8°C° 0.4 mm 3 mps 733 mmHg 86%
    08:00 +7°C° 0.4 mm 4 mps 733 mmHg 86%
    09:00 +8°C° 0.2 mm 4 mps 734 mmHg 82%
    10:00 +9°C° 0.2 mm 5 mps 735 mmHg 78%
    11:00 +10°C° 0.2 mm 5 mps 735 mmHg 74%
    12:00 +11°C° 0.2 mm 6 mps 736 mmHg 70%
    13:00 +11°C° 0.2 mm 6 mps 737 mmHg 65%
    14:00 +13°C° 0.2 mm 6 mps 737 mmHg 61%
    15:00 +11°C° 0.4 mm 6 mps 738 mmHg 65%
    16:00 +10°C° 0.4 mm 6 mps 738 mmHg 69%
    17:00 +9°C° 0.4 mm 6 mps 739 mmHg 74%
    18:00 +8°C° 0.3 mm 6 mps 740 mmHg 77%
    19:00 +7°C° 0.3 mm 6 mps 741 mmHg 80%
    20:00 +7°C° 0.3 mm 6 mps 742 mmHg 83%
    21:00 +5°C° 0 mm 6 mps 742 mmHg 83%
    22:00 +4°C° 0 mm 6 mps 743 mmHg 83%
    23:00 +3°C° 0 mm 5 mps 744 mmHg 83%

    25 September, Tuesday

    Time Temperature Precipitation Wind Pressure Humidity
    00:00 +3°C° 0 mm 5 mps 745 mmHg 83%
    01:00 +3°C° 0 mm 5 mps 745 mmHg 83%
    02:00 +2°C° 0 mm 5 mps 746 mmHg 83%
    03:00 +2°C° 0 mm 5 mps 746 mmHg 83%
    04:00 +2°C° 0 mm 5 mps 747 mmHg 83%
    05:00 +2°C° 0 mm 5 mps 747 mmHg 83%
    06:00 +3°C° 0 mm 5 mps 748 mmHg 80%
    07:00 +5°C° 0 mm 5 mps 748 mmHg 77%
    08:00 +4°C° 0 mm 6 mps 749 mmHg 74%
    09:00 +5°C° 0 mm 6 mps 749 mmHg 68%
    10:00 +8°C° 0 mm 7 mps 750 mmHg 62%
    11:00 +9°C° 0 mm 8 mps 750 mmHg 56%
    12:00 +9°C° 0.2 mm 8 mps 751 mmHg 55%
    13:00 +9°C° 0.2 mm 8 mps 751 mmHg 55%
    14:00 +9°C° 0.2 mm 8 mps 752 mmHg 54%
    15:00 +9°C° 0.1 mm 7 mps 752 mmHg 54%
    16:00 +9°C° 0.1 mm 6 mps 752 mmHg 55%
    17:00 +9°C° 0.1 mm 5 mps 753 mmHg 55%
    18:00 +8°C° 0 mm 4 mps 753 mmHg 59%
    19:00 +6°C° 0 mm 4 mps 753 mmHg 63%
    20:00 +5°C° 0 mm 3 mps 754 mmHg 67%
    21:00 +5°C° 0 mm 4 mps 754 mmHg 70%
    22:00 +5°C° 0 mm 4 mps 754 mmHg 73%
    23:00 +5°C° 0 mm 4 mps 754 mmHg 77%

    26 September, Wednesday

    Time Temperature Precipitation Wind Pressure Humidity
    00:00 +5°C° 0 mm 5 mps 754 mmHg 78%
    01:00 +6°C° 0 mm 5 mps 753 mmHg 79%
    02:00 +5°C° 0 mm 6 mps 753 mmHg 80%
    03:00 +5°C° 0 mm 6 mps 753 mmHg 80%
    04:00 +5°C° 0 mm 6 mps 753 mmHg 81%
    05:00 +7°C° 0 mm 6 mps 752 mmHg 81%
    06:00 +7°C° 0.1 mm 6 mps 752 mmHg 81%
    07:00 +6°C° 0.1 mm 7 mps 752 mmHg 80%
    08:00 +8°C° 0.1 mm 7 mps 751 mmHg 79%
    09:00 +8°C° 0.3 mm 7 mps 751 mmHg 78%
    10:00 +7°C° 0.3 mm 8 mps 751 mmHg 77%
    11:00 +9°C° 0.3 mm 8 mps 751 mmHg 75%
    12:00 +9°C° 0.2 mm 8 mps 750 mmHg 73%
    13:00 +9°C° 0.2 mm 8 mps 750 mmHg 70%
    14:00 +10°C° 0.2 mm 8 mps 749 mmHg 68%
    15:00 +9°C° 0.2 mm 8 mps 748 mmHg 68%
    16:00 +9°C° 0.2 mm 8 mps 748 mmHg 68%
    17:00 +9°C° 0.2 mm 7 mps 747 mmHg 69%
    18:00 +8°C° 0.2 mm 7 mps 747 mmHg 72%
    19:00 +7°C° 0.2 mm 8 mps 747 mmHg 75%
    20:00 +6°C° 0.2 mm 8 mps 746 mmHg 78%
    21:00 +6°C° 0.1 mm 8 mps 746 mmHg 77%
    22:00 +7°C° 0.1 mm 8 mps 745 mmHg 76%
    23:00 +7°C° 0.1 mm 8 mps 745 mmHg 75%

    27 September, Thursday

    Time Temperature Precipitation Wind Pressure Humidity
    00:00 +9°C° 0 mm 8 mps 744 mmHg 74%
    01:00 +9°C° 0 mm 8 mps 744 mmHg 74%
    02:00 +10°C° 0 mm 8 mps 744 mmHg 74%
    03:00 +10°C° 0.2 mm 8 mps 743 mmHg 76%
    04:00 +9°C° 0.2 mm 8 mps 743 mmHg 79%
    05:00 +9°C° 0.2 mm 8 mps 742 mmHg 81%
    06:00 +9°C° 0.5 mm 8 mps 742 mmHg 81%
    07:00 +9°C° 0.5 mm 8 mps 742 mmHg 81%
    08:00 +9°C° 0.5 mm 8 mps 741 mmHg 82%
    09:00 +10°C° 0.1 mm 8 mps 741 mmHg 80%
    10:00 +11°C° 0.1 mm 8 mps 741 mmHg 79%
    11:00 +12°C° 0.1 mm 8 mps 740 mmHg 77%
    12:00 +13°C° 0.1 mm 8 mps 740 mmHg 76%
    13:00 +13°C° 0.1 mm 8 mps 740 mmHg 75%
    14:00 +15°C° 0.1 mm 8 mps 739 mmHg 74%
    15:00 +13°C° 0 mm 8 mps 739 mmHg 76%
    16:00 +13°C° 0 mm 8 mps 738 mmHg 78%
    17:00 +12°C° 0 mm 8 mps 738 mmHg 79%
    18:00 +12°C° 0.1 mm 8 mps 737 mmHg 80%
    19:00 +12°C° 0.1 mm 9 mps 737 mmHg 80%
    20:00 +12°C° 0.1 mm 9 mps 737 mmHg 80%
    21:00 +12°C° 0.6 mm 8 mps 737 mmHg 82%
    22:00 +11°C° 0.6 mm 8 mps 737 mmHg 85%
    23:00 +10°C° 0.6 mm 7 mps 737 mmHg 87%
    Show more